Regional Weather Roundup
Issued by NWS

Home | Current Version | Previous Version | Text Only | Print | Product List | Glossary On
Versions: 1 2 3 4 5 6 7 8 9 10 11 12 13 14 15 16 17 18 19 20 21 22 23 24 25 26 27 28 29 30 31 32 33 34 35 36 37 38 39 40 41 42 43 44 45 46 47 48 49 50
000
ASUS45 KBOU 080410
RWRCO

WEATHER ROUNDUP FOR COLORADO
NATIONAL WEATHER SERVICE DENVER/BOULDER CO
1000 PM MDT TUE JUL 07 2015

NOTE: "FAIR" INDICATES FEW OR NO CLOUDS BELOW 12000 FEET WITH NO
SIGNIFICANT WEATHER AND/OR OBSTRUCTIONS TO VISIBILITY.

COZ001>005-013-030-031-080500-
...NORTHWEST COLORADO...

CITY           SKY/WX    TMP DP  RH WIND       PRES   REMARKS
CRAIG          CLOUDY    61  56  83 SE5       30.13R
HAYDEN         CLOUDY    57  48  72 E6        30.15R
MEEKER         CLOUDY    59  55  87 CALM      30.14R
MOUNT WERNER   NOT AVBL
STEAMBOAT SPGS CLOUDY    54  53  97 NW7       30.18R
WALDEN         CLOUDY    52  50  93 CALM      30.23S
$$

COZ006>008-011-080500-
...WEST CENTRAL VALLEYS...

CITY           SKY/WX    TMP DP  RH WIND       PRES   REMARKS
GRAND JUNCTION TSTM      64  59  83 NE16      30.03R
MONTROSE       CLOUDY    62  57  83 SE3       30.09S
EAGLE          CLOUDY    63  54  72 W5        30.17R
RIFLE          CLOUDY    59  55  87 NE3       30.08S
DELTA          CLOUDY    66  53  61 NE7       30.05S THUNDER
NUCLA          CLOUDY    61  57  88 N7        30.15R
$$

COZ017>023-064>068-080500-
...SOUTHWEST COLORADO...

CITY           SKY/WX    TMP DP  RH WIND       PRES   REMARKS
DURANGO        MOCLDY    57  52  83 CALM      30.17R
CORTEZ         PTCLDY    59  56  89 CALM      30.10S
PAGOSA SPRINGS PTCLDY    51  51  97 CALM      30.24R
TELLURIDE      CLOUDY    54  45  71 CALM      30.31R
WOLF CREEK PAS NOT AVBL
$$

COZ009-010-012-014-032>034-037-058>063-080500-
...CENTRAL COLORADO...

CITY           SKY/WX    TMP DP  RH WIND       PRES   REMARKS
ASPEN          CLOUDY    53  49  86 CALM      30.22F
BUENA VISTA    NOT AVBL
COPPER MTN     RAIN      45  37  76 W8        30.46R VSB 1/2
BERTHOUD PASS  CLOUDY    37  28  70 SE5       30.50S
COTTONWOOD PAS NOT AVBL
GUNNISON       MOCLDY    57  43  58 N7        30.24R
KREMMLING      DRIZZLE   54  50  87 CALM      30.22R
LEADVILLE      NOT AVBL
MONARCH PASS   RAIN      41  41 100 SW10      30.57S VSB<1/4
SALIDA         CLOUDY    55  52  91 CALM      30.31R
SUNLIGHT       CLOUDY    48  46  93 CALM      30.41R
WILKERSON PASS CLOUDY    43  41  93 SW3       30.46R FOG
$$

COZ069>075-080500-
...SAN LUIS VALLEY/SANGRE DE CRISTO MOUNTAINS...

CITY           SKY/WX    TMP DP  RH WIND       PRES   REMARKS
ALAMOSA        CLOUDY    54  49  83 CALM      30.22R
LA VETA PASS   MOCLDY    43  41  93 MISG      30.39S
SAGUACHE       CLOUDY    50  48  93 NE7       30.26R
$$

COZ035-036-038>040-080500-
...NORTHERN COLORADO FRONT RANGE...

CITY           SKY/WX    TMP DP  RH WIND       PRES   REMARKS
DENVER INTL AP MOCLDY    61  54  77 S7        30.12R HAZE
DMNS CITY PARK   N/A     61  55  79 E9        30.11S
AURORA         MOCLDY    60  53  78 S13       30.13S
FRONT RANGE AP NOT AVBL
ERIE MUNI ARPT CLOUDY    63  59  87 CALM      30.10S FOG
BOULDER MUN AP CLOUDY    61  61 100 CALM      30.10S
CENTENNIAL     CLOUDY    58  54  86 S13       30.13S HAZE
BROOMFIELD     DRIZZLE   63  59  88 CALM      30.13R
FORT COLLINS   CLOUDY    61  57  88 NW5       30.10S
LONGMONT       RAIN      65  60  83 CALM      30.11S
$$

COZ041-046-047-076>085-087-088-080500-
...PIKES PEAK/PALMER DIVIDE AND SOUTHERN FOOTHILLS...

CITY           SKY/WX    TMP DP  RH WIND       PRES   REMARKS
COLO. SPRINGS  CLOUDY    58  53  84 SE3       30.19S HAZE
A. F. ACADEMY  CLOUDY    56  54  92 SE7       30.19S
ELLICOTT       CLOUDY   N/A N/A N/A CALM      30.18S HAZE
FALCON         CLOUDY    55  52  91 CALM      30.23R FOG
FORT CARSON    CLOUDY    58  58 100 S3        30.17R FOG
LIMON          CLOUDY    62  45  53 SE10      30.15R
MONUMENT HILL  CLOUDY    52  50  93 MISG      30.22R FOG
TRINIDAD       CLOUDY    61  57  87 NW7       30.17R FOG
$$

COZ042>045-048>051-090-091-080500-
...NORTHEAST COLORADO...

CITY           SKY/WX    TMP DP  RH WIND       PRES   REMARKS
GREELEY ARPT   CLOUDY    64  55  72 S8        30.09R
AKRON          CLOUDY    64  45  49 SE15      30.12R
BURLINGTON     MOCLDY    64  44  48 SE13      30.14R
WRAY           CLOUDY    67  46  45 SE12      30.11R
STERLING       CLOUDY    68  46  45 S12G18    30.08R
HOLYOKE        CLOUDY    66  50  55 SE13G18   30.11R
FORT MORGAN    CLOUDY    67  44  43 SE9       30.11R
$$

COZ086-089-092>099-080500-
...SOUTHEAST COLORADO...

CITY           SKY/WX    TMP DP  RH WIND       PRES   REMARKS
PUEBLO         CLOUDY    64  57  78 S3        30.11S HAZE
LA JUNTA       CLOUDY    68  59  73 E6        30.11R HAZE
LAMAR          CLOUDY    69  44  40 SE9       30.09R
SPRINGFIELD      N/A     63  50  62 SE14      30.14R
$$



USA.gov is the U.S. government's official web portal to all federal, state and local government web resources and services.